Tracking 28766 objects as of 13-Apr-2024
HD Live streaming from Space Station
objects crossing your sky now

FENGYUN 1C DEB

Track FENGYUN 1C DEB now!
10-day predictions


NORAD ID: 31955
Int'l Code: 1999-025CNG
Perigee: 701.7 km
Apogee: 787.3 km
Inclination: 99.3 °
Period: 99.6 minutes
Semi major axis: 7115 km
RCS: 0.0141 m2 (small)
Launch date: May 10, 1999
Source: People's Republic of China (PRC)
Launch site: Taiyaun Space Center, China (TSC)

Note: This is SATELLITE DEBRIS
Your satellite tracking list
Your tracking list is empty




NASA's NSSDC Master Catalog

Two Line Element Set (TLE):
1 31955U 99025CNG 24103.38832354  .00007499  00000-0  20528-2 0  9992
2 31955  99.3020 264.8052 0060140 206.5850 183.6796 14.46428297876909
Source of the keplerian elements: AFSPC